Location: Martz Observatory
(42.0083°N, 79.0667°W)
Time: 04:47:12
(UTC-04:00)

Meteor 1-23 Rocket - Visible Passes

Search period start: 23 May 2015 00:00
Search period end: 02 June 2015 00:00
Orbit: 840 x 886 km, 81.3° (Epoch: 22 May)

Date Brightness Start Highest point End Pass type
(mag) Time Alt. Az. Time Alt. Az. Time Alt. Az.
23 May 6.2 22:28:59 10° SW 22:33:57 29° WNW 22:38:53 10° N visible
24 May 6.2 22:20:41 10° SW 22:25:40 29° WNW 22:30:37 10° N visible
25 May 6.2 22:12:22 10° SW 22:17:22 29° WNW 22:22:21 10° N visible
26 May 6.3 22:04:03 10° SW 22:09:05 30° WNW 22:14:05 10° N visible
27 May 6.3 21:55:45 10° SW 22:00:48 30° WNW 22:05:48 10° N visible
28 May 6.3 21:47:26 10° SW 21:52:30 30° WNW 21:57:33 10° N visible
29 May 6.3 21:39:08 10° SW 21:44:13 31° WNW 21:49:17 10° N visible
30 May 6.4 21:30:50 10° SW 21:35:55 31° WNW 21:41:00 10° N visible
31 May 6.4 21:22:31 10° SW 21:27:38 31° WNW 21:32:44 10° N visible
01 Jun 6.4 21:14:13 10° SW 21:19:21 32° WNW 21:24:28 10° N visible
